Location: Unspecified
(17.6330°N, 0.0000°E)
Time: 18:10:04
(UTC+00:00)

Courier 1B Rocket - Pass Details

Date: 01 July 2019
Orbit: 920 x 1202 km, 28.3° (Epoch: 16 August)

Event Time Altitude Azimuth Distance (km) Brightness Sun altitude
Rises 21:15:41 0° 228° (SW) 4,008 8.3 -32.2°
Reaches altitude 10° 21:18:35 10° 223° (SW) 3,076 7.6 -32.7°
Enters shadow 21:19:51 16° 219° (SW) 2,681 7.2 -32.9°
